Regional Weather Roundup
Issued by NWS

Home | Current Version | Previous Version | Graphics & Text | Print | Product List | Glossary On
Versions: 1 2 3 4 5 6 7 8 9 10 11 12 13 14 15 16 17 18 19 20 21 22 23 24 25 26 27 28 29 30 31 32 33 34 35 36 37 38 39 40 41 42 43 44 45 46 47 48 49 50
000
ASUS43 KLSX 050510
RWRMO

WEATHER SUMMARY FOR MISSOURI
NATIONAL WEATHER SERVICE SPRINGFIELD MO
1200 AM CDT WED AUG 05 2015

NOTE: "FAIR" INDICATES FEW OR NO CLOUDS BELOW 12,000 FEET WITH NO
       SIGNIFICANT WEATHER AND/OR OBSTRUCTIONS TO VISIBILITY.
       CURRENT SKY AND/OR WEATHER CONDITIONS ARE NOT AVAILABLE FOR
       CHILLICOTHE AND FARMINGTON.

MOZ001>031-035>038-043-044-053-054-050600-
...NORTHERN AND WESTERN MISSOURI...

CITY           SKY/WX    TMP DP  RH WIND       PRES   REMARKS
KANSAS CTY INT CLOUDY    71  69  93 SE9       29.99R
KANSAS C DTWN  MOCLDY    73  69  87 SE10      29.99R
LEE`S SUMMIT   MOCLDY    70  68  93 SE8       30.01S
ST JOSEPH      CLOUDY    70  68  93 SE6       29.98R
CHILLICOTHE      N/A     73  67  81 E3        30.01S
KIRKSVILLE     PTCLDY    69  64  84 E7        30.04R

$$
MOZ066>068-077>081-088>096-101>105-050600-
...SOUTHWEST MISSOURI...

CITY           SKY/WX    TMP DP  RH WIND       PRES   REMARKS
SPRINGFIELD    LGT RAIN  73  70  90 SE9       30.02S
JOPLIN         PTCLDY    73  70  90 SE6       29.97F

$$
MOZ032>034-039>042-045>050-055>058-069>072-050600-
...CENTRAL MISSOURI...

CITY           SKY/WX    TMP DP  RH WIND       PRES   REMARKS
COLUMBIA       LGT RAIN  70  68  93 N14       29.99F
JEFFERSON CITY CLOUDY    71  67  87 E3        30.00R
ROLLA          CLOUDY    70  63  78 NE8       30.02R
SEDALIA        CLOUDY    70  67  90 NE3       30.01F
WHITEMAN AFB   PTCLDY    69  67  94 CALM      30.00S
WARRENSBURG    CLOUDY    70  68  94 SE3       30.01R
OSAGE BEACH    CLOUDY    72  66  83 SW3       30.00S

$$
MOZ051-052-059>065-050600-
...EAST CENTRAL MISSOURI...

CITY           SKY/WX    TMP DP  RH WIND       PRES   REMARKS
ST LOUIS INTL  MOCLDY    78  69  73 E5        30.03R
SPIRIT OF STL  CLOUDY    76  74  93 CALM      30.01R
ST CHARLES     PTCLDY    73  69  87 E3        30.01R

$$
MOZ072>076-082>087-097>100-106>115-050600-
...SOUTH CENTRAL AND SOUTHEAST MISSOURI...

CITY           SKY/WX    TMP DP  RH WIND       PRES   REMARKS
CAPE GIRARDEAU CLOUDY    77  70  79 E5        29.98S
FARMINGTON     CLOUDY    75  70  83 NW3       30.06R
POPLAR BLUFF   CLOUDY    80  77  90 CALM      29.98R
WEST PLAINS    LGT RAIN  73  64  73 S8        30.06F

$$



USA.gov is the U.S. government's official web portal to all federal, state and local government web resources and services.